New York JFK, NY

5:08 AM EDT on October 21, 2019 (GMT -0400)
Kennedy International

Weather History for KJFK - August, 2019

Change the Weather History Date:

Tuesday, August 20, 2019

  Actual Average Record
Temperature  
Mean Temperature 80 °F 75 °F  
Max Temperature 86 °F 82 °F 100 °F (1983)
Min Temperature 74 °F 68 °F 55 °F (1949)
Degree Days  
Heating Degree Days 0 0  
Month to date heating degree days 0 0  
Since 1 June heating degree days 7 21  
Since 1 July heating degree days 0 0  
Cooling Degree Days 15 10  
Month to date cooling degree days 237 211  
Year to date cooling degree days 892 766  
Since 1 June cooling degree days 855 731  
Growing Degree Days 30 (Base 50)    
Moisture  
Dew Point 69 °F    
Average Humidity 74    
Maximum Humidity 100    
Minimum Humidity 51    
Precipitation  
Precipitation 0.00 in 0.12 in 3.41 in (1991)
Month to date precipitation 1.53 2.49  
Year to date precipitation 35.02 27.77  
Snow  
Snow 0.00 in 0.00 in - ()
Month to date snowfall 0.0 0.0  
Since 1 July snowfall 0.0 0.0  
Snow Depth 0.00 in    
Sea Level Pressure  
Sea Level Pressure 30.07 in    
Wind  
Wind Speed 6 mph ()    
Max Wind Speed 15 mph    
Max Gust Speed 18 mph    
Visibility 10.0 miles    
Events      
T = Trace of Precipitation, MM = Missing Value Source: Averaged Metar Reports

Daily Weather History Graph

Daily Weather History Graph

Search for Another Location

Airport or City:

Astronomy

Aug. 20, 2019 Rise Set
Actual Time 6:10 AM EDT 7:46 PM EDT
Civil Twilight 5:41 AM EDT 8:14 PM EDT
Nautical Twilight 5:06 AM EDT 8:49 PM EDT
Astronomical Twilight 4:29 AM EDT 9:26 PM EDT
Moon 10:31 PM EDT (8/20) 10:47 AM EDT (8/20)
Length of Visible Light 14h 33m
Length of Day
13h 35m
Waning Gibbous, 78% of the Moon is Illuminated
Aug 20
Waning Gibbous
Aug 23
Last Quarter
Aug 30
New
Sep 5
First Quarter
Sep 14
Full

Hourly Weather History & Observations

Time (EDT) Temp. Heat Index Dew Point Humidity Pressure Visibility Wind Dir Wind Speed Gust Speed Precip Events Conditions
12:51 AM 75.0 °F - 73.9 °F 96% 30.01 in 10.0 mi WSW 6.9 mph - N/A   Scattered Clouds
1:51 AM 75.9 °F - 75.0 °F 97% 30.02 in 10.0 mi West 6.9 mph - N/A   Mostly Cloudy
2:51 AM 75.9 °F - 73.9 °F 94% 30.03 in 10.0 mi West 5.8 mph - N/A   Mostly Cloudy
3:51 AM 75.0 °F - 73.9 °F 96% 30.03 in 10.0 mi WSW 3.5 mph - N/A   Mostly Cloudy
4:51 AM 75.9 °F - 73.0 °F 91% 30.05 in 10.0 mi NNW 3.5 mph - N/A   Mostly Cloudy
5:51 AM 75.0 °F - 72.0 °F 90% 30.07 in 10.0 mi NE 4.6 mph - N/A   Mostly Cloudy
6:51 AM 75.0 °F - 69.1 °F 82% 30.10 in 10.0 mi NNE 5.8 mph - N/A   Mostly Cloudy
7:51 AM 77.0 °F - 68.0 °F 74% 30.11 in 10.0 mi NNE 9.2 mph - N/A   Mostly Cloudy
8:51 AM 80.1 °F 81.9 °F 64.9 °F 60% 30.11 in 10.0 mi NE 12.7 mph - N/A   Mostly Cloudy
9:51 AM 82.0 °F 84.1 °F 66.0 °F 58% 30.11 in 10.0 mi NE 10.4 mph - N/A   Mostly Cloudy
10:51 AM 84.0 °F 86.3 °F 66.0 °F 55% 30.11 in 10.0 mi ESE 4.6 mph - N/A   Scattered Clouds
11:51 AM 84.9 °F 88.2 °F 68.0 °F 57% 30.11 in 10.0 mi South 8.1 mph - N/A   Scattered Clouds
12:51 PM 82.9 °F 86.5 °F 69.1 °F 63% 30.10 in 10.0 mi South 11.5 mph - N/A   Scattered Clouds
1:51 PM 82.9 °F 85.8 °F 68.0 °F 60% 30.10 in 10.0 mi South 12.7 mph - N/A   Mostly Cloudy
2:51 PM 82.9 °F 85.0 °F 66.0 °F 56% 30.10 in 10.0 mi SSE 11.5 mph - N/A   Mostly Cloudy
3:51 PM 84.0 °F 85.8 °F 64.9 °F 53% 30.08 in 10.0 mi South 11.5 mph - N/A   Scattered Clouds
4:51 PM 84.0 °F 85.8 °F 64.9 °F 53% 30.07 in 10.0 mi South 10.4 mph - N/A   Scattered Clouds
5:51 PM 82.0 °F 83.4 °F 64.0 °F 54% 30.07 in 10.0 mi South 9.2 mph - N/A   Scattered Clouds
6:51 PM 80.1 °F 82.3 °F 66.9 °F 64% 30.04 in 10.0 mi SSE 8.1 mph - N/A   Scattered Clouds
7:51 PM 77.0 °F - 69.1 °F 76% 30.04 in 10.0 mi SE 5.8 mph - N/A   Mostly Cloudy
8:51 PM 75.9 °F - 71.1 °F 85% 30.05 in 10.0 mi SE 4.6 mph - N/A   Mostly Cloudy
9:51 PM 75.9 °F - 72.0 °F 87% 30.06 in 10.0 mi South 5.8 mph - N/A   Mostly Cloudy
10:51 PM 75.9 °F - 73.0 °F 91% 30.05 in 10.0 mi SSE 4.6 mph - N/A   Mostly Cloudy
11:51 PM 75.0 °F - 73.9 °F 96% 30.04 in 10.0 mi SE 5.8 mph - N/A   Mostly Cloudy